Погода в Ребрихе

Погода в Ребрихе : погода сейчас, прогноз погоды и архив. Всё, что Вы хотите узнать о погоде в Ребрихе!

Хотите узнать прогноз погоды в Ребрихе? Тогда Вам сюда: Погода в Ребрихе

Поиск расширенной информации на нашем сайте:

Другие новости

Новости СМИ2

Главная страница сайта

Новости сайта

03.07.2017

Напоминаем, что на нашем специализированном сайте Метеоцентр.Азия вы можете получить высокодетализированные автоматические прогнозы погоды по пунктам России, СНГ и мира в авиационном формате (включающие направление и скорость ветра, видимость, явления погоды, количество и форму облачности, нижнюю и верхнюю границу облачности).


Погода в Ребрихе - сегодня

Время (UTC), дата Ветер
(°,м/с) 
Видим.   Явления Облачность Т
(°С)
Тd
(°С)
f(%) Тe
(°С)
Pmin
(гПа)
dP
(гПа)
Po
(мм)
O2
(г/м3)
Тmin Tmax R s Состояние
почвы
03 21.02.18 тихо ()   н/о    н/о 
-17.7 -19.5 86 -18  1029.9  -1.3  750  325  -18.4         
06 21.02.18 030 (СВ) н/о    н/о 
-10 -12.7 81 -12  1027.6  -1.4  749  314           
09 21.02.18 100 (В) н/о    н/о 
-3.3 -10 60 -4  1024.5  -2.2  747  306           
12 21.02.18 100 (В) н/о    н/о 
-5.9 -11.1 67 -7  1022.8  -1.9  746  308    -3.2       
15 21.02.18 080 (В) н/о    н/о 
-6.7 -10.4 75 -8  1020.5  -2.3  744  308           
18 21.02.18 100 (В) н/о    н/о 
-8.2 -11.5 77 -8  1018.7  -1.9  743  310           
21 21.02.18 150 (ЮВ) н/о    н/о 
-5.1 -11 63 -9  1016.4  -1.9  741  305           
00 22.02.18 160 (Ю) 7-11{11}  н/о    н/о 
-4 -6.1 85 -9  1015.5  -0.7  741  304  -10         
03 22.02.18 170 (Ю) 6{11}  н/о    н/о 
-3.8 -4.7 93 -8  1016.1  0.6  741  303           
06 22.02.18 190 (Ю) 10-14{14}  н/о    н/о 
-4 -5.7 88 -10  1018  1.9  743  304           
09 22.02.18 190 (Ю) 10-12{17}  н/о    н/о 
-7.9 -10.4 82 -15  1021  2.5  745  310           
12 22.02.18 200 (Ю) 8-11{14}  н/о    н/о 
-10.9 -12.7 87 -17  1024.4  2.5  747  315    -3.1  0.8     
15 22.02.18 200 (Ю) 5{11}  н/о    н/о 
-12.5 -14.1 88 -18  1026.7  2.1  748  317           
18 22.02.18 190 (Ю) н/о    н/о 
-14.2 -15.4 91 -19  1027.9  0.9  749  320           
21 22.02.18 190 (Ю) н/о    н/о 
-15.9 -17.3 89 -20  1028.3  0.2  749  322           
00 23.02.18 170 (Ю) н/о    н/о 
-16.7 -18.2 88 -17  1028  -0.4  749  323  -16.9      54  равномерный
мокрый или
старый снег
100% 
03 23.02.18 170 (Ю) н/о    н/о 
-14.4 -15.8 89 -17  1027.4  -0.3  749  320           
06 23.02.18 190 (Ю) 7-10{10}  н/о    н/о 
-8.4 -11 81 -14  1026  -0.7  748  312           
09 23.02.18 190 (Ю) 7-10{12}  н/о    н/о 
-7.6 -11.1 76 -13  1024.9  -1  747  311           
12 23.02.18 200 (Ю) 4{10}  н/о    н/о 
-9.8 -12.2 83 -14  1024.8  -0.3  747  313    -7.4       
15 23.02.18 190 (Ю) н/о    н/о 
-12.8 -14.3 89 -15  1024.8  -0.3  747  317           
18 23.02.18 180 (Ю) н/о    н/о 
-13.2 -14.3 91 -13  1024.1  -0.8  746  317           
21 23.02.18 тихо ()   н/о    н/о 
-15.9 -17.3 89 -16  1023.9  -0.4  746  321           
00 24.02.18 тихо ()   н/о    н/о 
-20.5 -22.4 85 -21  1023.8  -0.7  746  326  -20.5      53  равномерный
мокрый или
старый снег
100% 
03 24.02.18 тихо ()   н/о    н/о 
-17.8 -19.5 87 -18  1023.2  -0.3  745  323  -20.6         
Время (UTC), дата Ветер
(°,м/с) 
Видим.   Явления Облачность Т
(°С)
Тd
(°С)
f(%) Тe
(°С)
Pmin
(гПа)
dP
(гПа)
Po
(мм)
O2
(г/м3)
Тmin Tmax R s Состояние
почвы

Для получения пояснительной информации подведите курсор к названию столбца.

ПОГОДА в Ребрихе - архив

Всё, что Вы хотите узнать о погоде в Ребрихе - удобно и подробно!

Выберите нужную дату (начиная с 1 января 2015* года) и нажмите кнопку "Найти".
Будут отображены архивные сводки погоды по пункту Ребриха, начиная с указанной даты.


Отображать данные в формате CSV (для использования в таблицах Excel)


Внимание! Наш архив погоды предназначен исключительно для личного некоммерческого использования в познавательных целях. Если Вам необходимы официальные справки о состоянии погоды (для производственных, юридических, коммерческих и т.п. целей), обращайтесь в органы Росгидромета.

*Примечание: данная дата относится к архиву по метеостанциям СССР (Россия, СНГ, Балтия).
Архив по метеостанциям Зарубежной Европы и Азии (кроме Китая) хранится 10 дней, по другим регионам земного шара (Китай, Африка, Америка, Австралия, Океания) - 1 день.

Ребриха - район местоположения метеостанции


Название, широта, долгота, высота метеостанции:
Ребриха 53.1°ш. 82.3°д. 219 м над ур. моря [Российская Федерация]

Дополнительная информация

В oтличие oт бoльшинства пoгoдных сайтoв мы публикуем пoдрoбную метеoинфoрмацию в детальнoм прoфессиoнальнoм фoрмате.

Характеристики температуры и влажнoсти вoздуха измеряются на высoте 2 м в тени вдали oт зданий и деревьев.
Скoрoсть ветра измеряется на высoте 10 м (на урoвне рoста челoвека скoрoсть ветра ниже в 1.5-2 раза). Если метеoстанция нахoдится в гoрoде или в лесу, тo скoрoсть ветра занижена на 2-4 м/с пo сравнению с oткрытым местoм. Скoрoсть ветра над акватoриями крупных рек и oзёр, а также на вершинах хoлмoв на 2-5 м/с выше, чем в oбычных услoвиях.
Атмoсфернoе давление в разных тoчках местнoсти мoжет значительнo oтличаться oт давления на метеoстанции, в зависимoсти oт услoвий рельефа (при пoдъёме на 10 м давление пoнижается примернo на 1 мм рт.ст.).